[[{"header":{"parameterUnit":"m.s-1","parameterCategory":1,"la1":30.2991,"la2":30.254,"lo1":-89.0895,"lo2":-89.0444,"dy":0.0017,"dx":0.0017,"nx":28,"ny":28,"refTime":"2024-03-16T21:00:00:Z","depth":0,"parameterNumber":2,"parameterNumberName":"U-component_of_WINDS"},"data":[0,0,0,0,0,0,0,0,0,0,0,0,0,0,0,0,0,0,0,0,0,0,0,0,0,0,0,0,0,0,0,0,0,0,0,0,0,0,0,0,0,0,0,0,0,0,0,0,0,0,0,0,0,0,0,0,0,0,-0.7051,-0.7051,0,-0.7021,-0.7021,-0.7021,-0.6998,-0.6998,-0.6997,-0.6997,-0.6966,-0.6966,-0.6965,0,0,0,0,0,0,0,0,0,0,0,0,0,-0.7087,-0.7087,-0.7051,-0.7051,-0.705,-0.7021,-0.7021,-0.7021,-0.6998,-0.6998,-0.6997,-0.6997,-0.6967,-0.6966,-0.6965,0,0,0,0,0,0,0,0,0,0,0,0,0,-0.7066,-0.7087,-0.7051,-0.7035,-0.7034,-0.7022,-0.7021,-0.7021,-0.6998,-0.6998,-0.6997,-0.6997,-0.6967,-0.6966,-0.6965,-0.6966,0,0,-0.6962,-0.6962,0,0,0,0,0,0,0,0,-0.7067,-0.7065,-0.7038,-0.7036,-0.7034,-0.7013,-0.7023,-0.7002,-0.6998,-0.7011,-0.6997,-0.6997,-0.6982,-0.698,-0.6975,-0.6965,-0.6963,-0.6962,-0.6962,-0.6961,-0.6961,0,0,0,0,0,0,0,-0.7069,-0.7066,-0.7039,-0.7038,-0.7035,-0.703,-0.7026,-0.7019,-0.6999,-0.701,-0.7009,-0.7005,-0.6981,-0.6976,-0.6974,-0.6963,-0.6962,-0.6961,-0.6961,-0.696,-0.6952,-0.6952,0,0,0,0,0,0,-0.7073,-0.7067,-0.704,-0.7038,-0.705,-0.7029,-0.7026,-0.702,-0.6999,-0.6995,-0.7006,-0.7004,-0.6978,-0.6975,-0.6973,-0.6973,-0.6961,-0.696,-0.696,-0.6951,-0.6952,-0.6952,0,0,0,0,0,0,-0.7074,-0.707,-0.7041,-0.7052,-0.7048,-0.7029,-0.7023,-0.702,-0.7015,-0.6996,-0.6992,-0.7004,-0.6977,-0.6974,-0.6968,-0.6971,-0.696,-0.6959,-0.6951,-0.6952,-0.6952,-0.6972,0,0,0,0,0,0,-0.7075,-0.7071,-0.7071,-0.7052,-0.7048,-0.7037,-0.7023,-0.7019,-0.7013,-0.7011,-0.6993,-0.699,-0.6977,-0.697,-0.6967,-0.697,-0.6958,-0.6951,-0.6951,-0.6952,-0.6971,-0.6974,-0.6975,0,0,0,0,0,-0.7076,-0.7078,-0.7071,-0.7068,-0.7047,-0.7037,-0.7034,-0.702,-0.7014,-0.7014,-0.7001,-0.699,-0.6972,-0.6969,-0.6966,-0.6969,-0.695,-0.6951,-0.6952,-0.697,-0.6973,-0.6975,0,0,0,0,0,0,-0.7097,-0.7075,-0.7067,-0.7063,-0.7052,-0.7033,-0.7033,-0.7023,-0.7013,-0.7012,-0.6994,-0.699,-0.6986,-0.6977,-0.6974,-0.6969,-0.696,-0.696,-0.6975,-0.6977,-0.6979,-0.6981,-0.6958,0,0,0,0,0,-0.7101,-0.7095,-0.7076,-0.7074,-0.7069,-0.7052,-0.7047,-0.7037,-0.7024,-0.702,-0.7007,-0.6995,-0.6987,-0.6981,-0.6973,-0.697,-0.6966,-0.6971,-0.6973,-0.6974,-0.6975,-0.6973,-0.6975,-0.6955,-0.6955,-0.6955,0,0,-0.711,-0.7097,-0.7094,-0.7078,-0.7068,-0.7062,-0.7048,-0.7042,-0.7037,-0.7018,-0.7012,-0.7002,-0.6988,-0.6984,-0.6981,-0.6976,-0.6979,-0.6975,-0.6977,-0.6976,-0.6974,-0.6976,-0.6977,-0.6955,-0.6955,-0.6955,0,0,-0.7122,-0.7111,-0.7109,-0.7099,-0.7085,-0.7074,-0.7073,-0.7056,-0.7049,-0.7042,-0.7028,-0.7022,-0.7008,-0.6998,-0.6992,-0.7001,-0.6991,-0.6999,-0.7009,-0.7008,-0.7009,-0.7011,-0.7014,-0.7015,-0.6999,-0.6999,-0.6999,0,-0.7134,-0.7124,-0.7109,-0.7103,-0.7097,-0.708,-0.7078,-0.7069,-0.7053,-0.7048,-0.7043,-0.7025,-0.7014,-0.7008,-0.701,-0.7005,-0.7004,-0.7001,-0.701,-0.7012,-0.7013,-0.7015,-0.7017,-0.7,-0.7,-0.7,-0.7,0,-0.714,-0.7133,-0.7133,-0.7117,-0.7111,-0.7107,-0.7091,-0.7086,-0.7077,-0.7066,-0.706,-0.7046,-0.7035,-0.7032,-0.7023,-0.7025,-0.7022,-0.7014,-0.7004,-0.7016,-0.7018,-0.7019,-0.7002,-0.7001,-0.7001,-0.7001,0,0,-0.7163,-0.714,-0.714,-0.7133,-0.7117,-0.7111,-0.7107,-0.7095,-0.7092,-0.7081,-0.7077,-0.7065,-0.7058,-0.7051,-0.704,-0.7039,-0.7047,-0.703,-0.703,-0.7034,-0.7048,-0.7054,-0.7056,-0.704,-0.704,-0.704,-0.7049,0,-0.7173,-0.7164,-0.715,-0.7146,-0.7139,-0.7124,-0.712,-0.7109,-0.71,-0.7093,-0.7082,-0.7074,-0.7065,-0.706,-0.7058,-0.7046,-0.705,-0.7046,-0.7036,-0.7036,-0.704,-0.7057,-0.7063,-0.7072,-0.705,-0.705,-0.705,0,-0.7182,-0.7173,-0.7168,-0.7152,-0.7149,-0.7145,-0.7134,-0.7128,-0.7116,-0.7109,-0.7101,-0.709,-0.7084,-0.7076,-0.7068,-0.7065,-0.7061,-0.7054,-0.7054,-0.7053,-0.7044,-0.7056,-0.7075,-0.7076,-0.7052,-0.7052,-0.7052,0,-0.72,-0.7186,-0.7181,-0.7176,-0.7157,-0.7155,-0.7147,-0.7135,-0.7129,-0.7119,-0.7116,-0.7105,-0.71,-0.7092,-0.7078,-0.7073,-0.7072,-0.7062,-0.7066,-0.7066,-0.7066,-0.7066,-0.7084,-0.7063,-0.7063,-0.7063,-0.7063,0,-0.7211,-0.7209,-0.7189,-0.7186,-0.7183,-0.7168,-0.7165,-0.7156,-0.7145,-0.714,-0.7126,-0.7121,-0.7103,-0.7097,-0.7086,-0.7081,-0.7079,-0.7073,-0.707,-0.7074,-0.7075,-0.707,-0.7069,-0.7064,-0.7064,-0.7063,-0.7063,0,-0.7231,-0.7217,-0.7211,-0.7194,-0.719,-0.7188,-0.7174,-0.717,-0.716,-0.7154,-0.7152,-0.7135,-0.7127,-0.7113,-0.71,-0.7093,-0.709,-0.7085,-0.7094,-0.7092,-0.7097,-0.7096,-0.7113,-0.7114,-0.7093,-0.7093,-0.7093,0,-0.7239,-0.7236,-0.722,-0.7215,-0.7208,-0.7202,-0.7196,-0.7181,-0.7176,-0.7162,-0.716,-0.7151,-0.7142,-0.713,-0.7117,-0.7107,-0.7102,-0.7108,-0.71,-0.7105,-0.7102,-0.7102,-0.7102,-0.711,-0.711,-0.7111,-0.7111,0,-0.7255,-0.7248,-0.7241,-0.7231,-0.7225,-0.7216,-0.7207,-0.7204,-0.7187,-0.7182,-0.7173,-0.7167,-0.7155,-0.7146,-0.7134,-0.7126,-0.7116,-0.7114,-0.7114,-0.7118,-0.7123,-0.712,-0.7099,-0.7113,-0.7113,-0.7113,-0.7113,-0.7112,-0.7268,-0.7266,-0.7254,-0.7246,-0.7237,-0.7229,-0.7225,-0.7215,-0.7208,-0.7196,-0.7188,-0.718,-0.7168,-0.7152,-0.7145,-0.7138,-0.7134,-0.7134,-0.7134,-0.7134,-0.7136,-0.7124,-0.7136,-0.7136,-0.7136,-0.7136,-0.7136,0,-0.7283,-0.7275,-0.7268,-0.7256,-0.725,-0.7241,-0.7231,-0.7226,-0.7219,-0.7209,-0.7202,-0.7192,-0.7183,-0.717,-0.716,-0.7158,-0.7153,-0.7156,-0.7156,-0.7154,-0.7141,-0.7141,-0.716,-0.716,-0.716,-0.716,-0.716,-0.716,-0.7291,-0.7286,-0.7278,-0.7269,-0.7261,-0.7253,-0.7248,-0.7241,-0.7233,-0.7223,-0.7216,-0.7207,-0.7196,-0.7185,-0.7177,-0.7173,-0.717,-0.7174,-0.7169,-0.7157,-0.7155,-0.7153,-0.7153,-0.7174,-0.7174,-0.7183,-0.7183,-0.7183]},{"header":{"parameterUnit":"m.s-1","parameterCategory":1,"la1":30.2991,"la2":30.254,"lo1":-89.0895,"lo2":-89.0444,"dy":0.0017,"dx":0.0017,"nx":28,"ny":28,"refTime":"2024-03-16T21:00:00:Z","depth":0,"parameterNumber":3,"parameterNumberName":"V-component_of_WINDS"},"data":[0,0,0,0,0,0,0,0,0,0,0,0,0,0,0,0,0,0,0,0,0,0,0,0,0,0,0,0,0,0,0,0,0,0,0,0,0,0,0,0,0,0,0,0,0,0,0,0,0,0,0,0,0,0,0,0,0,0,-0.3376,-0.3376,0,-0.3375,-0.3375,-0.3374,-0.3394,-0.3394,-0.3395,-0.3395,-0.3393,-0.3392,-0.3392,0,0,0,0,0,0,0,0,0,0,0,0,0,-0.3394,-0.3394,-0.3376,-0.3376,-0.3376,-0.3375,-0.3375,-0.3374,-0.3394,-0.3394,-0.3395,-0.3395,-0.3393,-0.3392,-0.3392,0,0,0,0,0,0,0,0,0,0,0,0,0,-0.3389,-0.3393,-0.3376,-0.3385,-0.3386,-0.3375,-0.3375,-0.3374,-0.3393,-0.3394,-0.3395,-0.3396,-0.3393,-0.3392,-0.3392,-0.3371,0,0,-0.3389,-0.3389,0,0,0,0,0,0,0,0,-0.3389,-0.3388,-0.3384,-0.3384,-0.3385,-0.3385,-0.338,-0.3373,-0.3393,-0.3391,-0.3395,-0.3396,-0.339,-0.3389,-0.3387,-0.3371,-0.3371,-0.3389,-0.3389,-0.3388,-0.3388,0,0,0,0,0,0,0,-0.3389,-0.3388,-0.3375,-0.3384,-0.3385,-0.3389,-0.3389,-0.3379,-0.3386,-0.3391,-0.3392,-0.3392,-0.339,-0.3388,-0.3387,-0.3371,-0.3389,-0.3388,-0.3388,-0.3387,-0.3337,-0.3337,0,0,0,0,0,0,-0.3389,-0.3388,-0.3375,-0.3375,-0.3389,-0.3388,-0.3388,-0.3384,-0.3386,-0.3387,-0.3391,-0.3393,-0.3389,-0.3388,-0.3387,-0.3363,-0.3388,-0.3387,-0.3387,-0.3338,-0.3337,-0.3336,0,0,0,0,0,0,-0.3389,-0.3387,-0.3375,-0.3382,-0.3381,-0.3387,-0.3382,-0.3384,-0.3382,-0.3386,-0.3387,-0.3388,-0.3389,-0.3388,-0.3375,-0.3363,-0.3387,-0.3386,-0.3339,-0.3338,-0.3337,-0.3314,0,0,0,0,0,0,-0.3389,-0.3387,-0.3379,-0.3382,-0.3381,-0.3363,-0.3382,-0.3383,-0.338,-0.3382,-0.3383,-0.3384,-0.339,-0.3376,-0.3374,-0.3362,-0.3386,-0.334,-0.3339,-0.3337,-0.3316,-0.3312,-0.3309,0,0,0,0,0,-0.339,-0.3373,-0.3379,-0.3377,-0.3371,-0.3362,-0.3362,-0.3369,-0.3379,-0.3371,-0.3374,-0.3384,-0.3365,-0.3374,-0.3372,-0.336,-0.3341,-0.3339,-0.3337,-0.3317,-0.3313,-0.3309,0,0,0,0,0,0,-0.3368,-0.3373,-0.338,-0.3363,-0.3362,-0.3366,-0.3356,-0.3364,-0.336,-0.3362,-0.3371,-0.3371,-0.3356,-0.3357,-0.3368,-0.334,-0.3355,-0.3352,-0.334,-0.3336,-0.3333,-0.3333,-0.3385,0,0,0,0,0,-0.3362,-0.3354,-0.3359,-0.3344,-0.3343,-0.335,-0.3346,-0.3352,-0.3351,-0.3351,-0.3353,-0.3351,-0.3345,-0.3341,-0.3335,-0.3317,-0.3317,-0.3307,-0.3304,-0.3301,-0.3299,-0.3289,-0.3284,-0.333,-0.333,-0.333,0,0,-0.3347,-0.3349,-0.3344,-0.334,-0.334,-0.3332,-0.3349,-0.334,-0.3334,-0.3349,-0.3337,-0.3338,-0.3337,-0.3321,-0.3314,-0.3321,-0.3286,-0.3299,-0.3296,-0.3295,-0.3286,-0.3282,-0.3278,-0.3329,-0.3329,-0.3329,0,0,-0.3318,-0.3319,-0.3306,-0.3306,-0.3306,-0.3311,-0.3308,-0.331,-0.3311,-0.3299,-0.3311,-0.3304,-0.3293,-0.3292,-0.329,-0.3261,-0.3269,-0.3259,-0.3241,-0.3231,-0.3227,-0.3224,-0.3213,-0.321,-0.3257,-0.3256,-0.3256,0,-0.33,-0.3289,-0.3298,-0.3289,-0.3286,-0.3301,-0.3288,-0.3287,-0.3285,-0.3283,-0.3291,-0.3278,-0.3279,-0.3262,-0.3255,-0.3254,-0.325,-0.3258,-0.3227,-0.3224,-0.3221,-0.3211,-0.3207,-0.3255,-0.3255,-0.3255,-0.3256,0,-0.3267,-0.3259,-0.3249,-0.3248,-0.3244,-0.3233,-0.3241,-0.3236,-0.3243,-0.3246,-0.3234,-0.3235,-0.323,-0.3227,-0.3233,-0.3212,-0.3216,-0.3226,-0.324,-0.3215,-0.3206,-0.3202,-0.3253,-0.3254,-0.3254,-0.3254,0,0,-0.3222,-0.3227,-0.3223,-0.3223,-0.3224,-0.3218,-0.3208,-0.3204,-0.3199,-0.3198,-0.3189,-0.318,-0.3189,-0.3187,-0.3193,-0.3185,-0.3161,-0.3195,-0.3196,-0.3189,-0.3138,-0.313,-0.3125,-0.3168,-0.3167,-0.3166,-0.3138,0,-0.3193,-0.3176,-0.3185,-0.3166,-0.3159,-0.3173,-0.3164,-0.3164,-0.3167,-0.3162,-0.3166,-0.3159,-0.3171,-0.317,-0.3163,-0.3166,-0.3151,-0.3168,-0.3159,-0.3159,-0.3158,-0.3121,-0.3112,-0.3085,-0.3134,-0.3134,-0.3133,0,-0.3157,-0.3154,-0.3135,-0.3138,-0.3136,-0.3128,-0.3125,-0.3119,-0.3119,-0.3123,-0.3121,-0.3129,-0.3119,-0.3134,-0.312,-0.3131,-0.3128,-0.313,-0.3129,-0.3128,-0.3144,-0.3118,-0.3077,-0.3072,-0.3128,-0.3128,-0.3128,0,-0.3125,-0.3117,-0.3105,-0.3104,-0.3108,-0.3102,-0.3103,-0.3104,-0.3101,-0.3099,-0.3097,-0.3093,-0.3091,-0.3088,-0.3095,-0.3105,-0.308,-0.3095,-0.3082,-0.3081,-0.3075,-0.3075,-0.3032,-0.3074,-0.3074,-0.3074,-0.3074,0,-0.3091,-0.3079,-0.3091,-0.3083,-0.307,-0.3081,-0.3067,-0.307,-0.3071,-0.3064,-0.3076,-0.3069,-0.3079,-0.3073,-0.3079,-0.3066,-0.3065,-0.3067,-0.3069,-0.3066,-0.3065,-0.3063,-0.3065,-0.3073,-0.3073,-0.3074,-0.3074,0,-0.3054,-0.3061,-0.3049,-0.3054,-0.3055,-0.3045,-0.3049,-0.3042,-0.3047,-0.3038,-0.3036,-0.3043,-0.3037,-0.3044,-0.3038,-0.3042,-0.3025,-0.303,-0.3025,-0.3026,-0.3012,-0.3013,-0.2966,-0.296,-0.3006,-0.3006,-0.3005,0,-0.3031,-0.3022,-0.3026,-0.3023,-0.3024,-0.3018,-0.3015,-0.3025,-0.3022,-0.3022,-0.3015,-0.301,-0.3006,-0.2995,-0.3,-0.2996,-0.3,-0.2984,-0.2999,-0.2996,-0.2999,-0.2999,-0.2998,-0.298,-0.2979,-0.2979,-0.2979,0,-0.299,-0.2994,-0.299,-0.2988,-0.2984,-0.2983,-0.2982,-0.2978,-0.2989,-0.2984,-0.2978,-0.2976,-0.297,-0.2965,-0.2962,-0.2963,-0.2972,-0.2974,-0.297,-0.2967,-0.2964,-0.2965,-0.3016,-0.2975,-0.2975,-0.2975,-0.2975,-0.2976,-0.2959,-0.2951,-0.2954,-0.2949,-0.2949,-0.2949,-0.2942,-0.2947,-0.2942,-0.2939,-0.2945,-0.2938,-0.2939,-0.2936,-0.2936,-0.293,-0.2937,-0.2932,-0.2931,-0.2929,-0.2927,-0.2966,-0.293,-0.293,-0.293,-0.293,-0.293,0,-0.2918,-0.292,-0.2916,-0.2914,-0.2911,-0.2921,-0.2921,-0.2917,-0.291,-0.2911,-0.2907,-0.29,-0.2896,-0.29,-0.2896,-0.2891,-0.2895,-0.2889,-0.2889,-0.2889,-0.2921,-0.2924,-0.2886,-0.2886,-0.2886,-0.2886,-0.2886,-0.2886,-0.2896,-0.2884,-0.2889,-0.2878,-0.288,-0.2873,-0.2872,-0.2872,-0.2872,-0.2864,-0.2861,-0.2864,-0.2866,-0.2863,-0.2859,-0.286,-0.2858,-0.2851,-0.2853,-0.2883,-0.2887,-0.2891,-0.2894,-0.285,-0.285,-0.2822,-0.2822,-0.2822]}]]